Weather History for Nice, France

Change the Weather History Date:

Thursday, February 7, 2013

  Actual Average Record
Temperature  
Mean Temperature 48 °F -  
Max Temperature 55 °F 56 °F 62 °F (2008)
Min Temperature 41 °F 41 °F 30 °F (2012)
Degree Days  
Heating Degree Days 17    
Moisture  
Dew Point 17 °F    
Average Humidity 29    
Maximum Humidity 53    
Minimum Humidity 13    
Precipitation  
Precipitation 0.00 in 0.10 in - ()
Sea Level Pressure  
Sea Level Pressure 29.59 in    
Wind  
Wind Speed 6 mph ()    
Max Wind Speed 12 mph    
Max Gust Speed 20 mph    
Visibility 6.6 miles    
Events      
Averages and records for this station are not official NWS values.
T = Trace of Precipitation, MM = Missing Value Source: Averaged Metar Reports

Daily Weather History Graph

Daily Weather History Graph

Search for Another Location

Airport:

Trip Planner

Search our weather history database for the weather conditions in past years. The results will help you decide how hot, cold, wet, or windy it might be!

Date:

Astronomy

Feb. 07, 2013 Rise Set
Actual Time 7:40 AM CET 5:50 PM CET
Civil Twilight 7:10 AM CET 6:20 PM CET
Nautical Twilight 6:36 AM CET 6:54 PM CET
Astronomical Twilight 6:03 AM CET 7:28 PM CET
Moon 5:09 AM CET (2/7) 2:53 PM CET (2/7)
Length of Visible Light 11h 10m
Length of Day
10h 10m
Waning Crescent, 11% of the Moon is Illuminated
Feb 7
Waning Crescent
Feb 10
New
Feb 17
First Quarter
Feb 25
Full
Mar 4
Last Quarter

Hourly Weather History & Observations

Time (CET) Temp. Windchill Dew Point Humidity Pressure Visibility Wind Dir Wind Speed Gust Speed Precip Events Conditions
12:00 AM 44.6 °F 40.2 °F 19.4 °F 37% 29.44 in - NNW 8.1 mph - N/A   Clear
12:30 AM 44.6 °F 40.7 °F 19.4 °F 37% 29.44 in - NNW 6.9 mph - N/A   Clear
1:00 AM 44 °F - 19 °F 23% 29.47 in 31 mi NW 5.8 mph - -   Partly Cloudy
1:00 AM 42.8 °F 39.3 °F 19.4 °F 39% 29.44 in - NW 5.8 mph - N/A   Clear
1:30 AM 44.6 °F 40.7 °F 17.6 °F 34% 29.44 in - NNW 6.9 mph - N/A   Clear
2:00 AM 44.6 °F 42.2 °F 24.8 °F 46% 29.44 in - NW 4.6 mph - N/A   Clear
2:30 AM 44.6 °F 40.7 °F 19.4 °F 37% 29.44 in - NW 6.9 mph - N/A   Clear
3:00 AM 46.4 °F 43.5 °F 15.8 °F 29% 29.47 in - North 5.8 mph - N/A   Clear
3:30 AM 46.4 °F 45.2 °F 19.4 °F 34% 29.47 in - West 3.5 mph - N/A   Clear
4:00 AM 44.6 °F - 19.4 °F 37% 29.47 in - Calm Calm - N/A   Clear
4:30 AM 44.6 °F 43.1 °F 12.2 °F 27% 29.47 in - Variable 3.5 mph - N/A   Clear
5:00 AM 44.6 °F 43.1 °F 10.4 °F 25% 29.47 in - Variable 3.5 mph - N/A   Clear
5:30 AM 44.6 °F 42.2 °F 10.4 °F 25% 29.47 in - North 4.6 mph - N/A   Clear
6:00 AM 42.8 °F 41.1 °F 10.4 °F 27% 29.47 in - Variable 3.5 mph - N/A   Clear
6:30 AM 42.8 °F 38.6 °F 10.4 °F 27% 29.50 in - NNW 6.9 mph - N/A   Clear
7:00 AM 44 °F - 11 °F 14% 29.52 in 31 mi NNW 9.2 mph - -   Mostly Cloudy
7:00 AM 44.6 °F 39.7 °F 10.4 °F 25% 29.50 in - North 9.2 mph - N/A   Clear
7:30 AM 42.8 °F 37.0 °F 12.2 °F 29% 29.53 in - NNE 10.4 mph - N/A   Clear
8:00 AM 46.4 °F 41.9 °F 10.4 °F 23% 29.53 in 6.2 mi North 9.2 mph - N/A   Mostly Cloudy
8:30 AM 44.6 °F 38.8 °F 12.2 °F 27% 29.53 in 6.2 mi NNW 11.5 mph - N/A   Mostly Cloudy
9:00 AM 44.6 °F 38.8 °F 12.2 °F 27% 29.56 in 6.2 mi NNW 11.5 mph - N/A   Mostly Cloudy
9:30 AM 44.6 °F 38.8 °F 14.0 °F 29% 29.56 in 6.2 mi NNW 11.5 mph - N/A   Mostly Cloudy
10:00 AM 46.4 °F 42.9 °F 14.0 °F 27% 29.59 in 6.2 mi NNW 6.9 mph - N/A   Mostly Cloudy
10:30 AM 48.2 °F - 17.6 °F 30% 29.59 in 6.2 mi West 6.9 mph - N/A   Mostly Cloudy
11:00 AM 50.0 °F - 12.2 °F 22% 29.59 in 6.2 mi NW 4.6 mph - N/A   Mostly Cloudy
11:30 AM 51.8 °F - 14.0 °F 22% 29.62 in 6.2 mi SSW 6.9 mph - N/A   Mostly Cloudy
12:00 PM 51.8 °F - 23.0 °F 33% 29.62 in 6.2 mi SW 4.6 mph - N/A   Mostly Cloudy
12:30 PM 51.8 °F - 23.0 °F 33% 29.62 in 6.2 mi SSW 4.6 mph - N/A   Mostly Cloudy
1:00 PM 53 °F - 17 °F 13% 29.64 in 31 mi South 4.6 mph - -   Scattered Clouds
1:00 PM 53.6 °F - 19.4 °F 26% 29.62 in 6.2 mi South 3.5 mph - N/A   Mostly Cloudy
1:30 PM 53.6 °F - 12.2 °F 19% 29.62 in 6.2 mi Variable 6.9 mph 19.6 mph N/A   Mostly Cloudy
2:00 PM 53.6 °F - 14.0 °F 21% 29.62 in 6.2 mi NE 4.6 mph - N/A   Mostly Cloudy
2:30 PM 53.6 °F - 10.4 °F 18% 29.62 in 6.2 mi Variable 3.5 mph - N/A   Mostly Cloudy
3:00 PM 55.4 °F - 10.4 °F 17% 29.62 in 6.2 mi North 6.9 mph - N/A   Mostly Cloudy
3:30 PM 55.4 °F - 19.4 °F 25% 29.62 in 6.2 mi SSE 4.6 mph - N/A   Mostly Cloudy
4:00 PM 55.4 °F - 21.2 °F 26% 29.65 in 6.2 mi SSE 6.9 mph - N/A   Mostly Cloudy
4:30 PM 55.4 °F - 23.0 °F 29% 29.65 in 6.2 mi South 5.8 mph - N/A   Mostly Cloudy
5:00 PM 53.6 °F - 23.0 °F 30% 29.65 in 6.2 mi SW 6.9 mph - N/A   Mostly Cloudy
5:30 PM 53.6 °F - 23.0 °F 30% 29.65 in 6.2 mi SW 8.1 mph - N/A   Scattered Clouds
6:00 PM 51.8 °F - 23.0 °F 33% 29.68 in 6.2 mi SW 8.1 mph - N/A   Partly Cloudy
6:30 PM 50.0 °F - 28.4 °F 43% 29.68 in 6.2 mi West 8.1 mph - N/A   Partly Cloudy
7:00 PM 47 °F - 27 °F 33% 29.71 in 19 mi West 6.9 mph - -   Scattered Clouds
7:00 PM 48.2 °F - 28.4 °F 46% 29.68 in 6.2 mi West 6.9 mph - N/A   Partly Cloudy
7:30 PM 44.6 °F 41.4 °F 28.4 °F 53% 29.71 in 6.2 mi West 5.8 mph - N/A   Partly Cloudy
8:00 PM 42.8 °F 38.0 °F 23.0 °F 46% 29.71 in 6.2 mi NNW 8.1 mph - N/A   Partly Cloudy
8:30 PM 44.6 °F 39.2 °F 19.4 °F 37% 29.71 in 6.2 mi NNW 10.4 mph - N/A   Partly Cloudy
9:00 PM 44.6 °F 43.1 °F 15.8 °F 31% 29.71 in 6.2 mi NW 3.5 mph - N/A   Partly Cloudy
9:30 PM 44.6 °F 41.4 °F 14.0 °F 29% 29.71 in 6.2 mi NW 5.8 mph - N/A   Scattered Clouds
10:00 PM 44.6 °F 39.2 °F 10.4 °F 25% 29.74 in 6.2 mi NNE 10.4 mph - N/A   Scattered Clouds
10:30 PM 46.4 °F 43.5 °F 6.8 °F 20% 29.74 in 6.2 mi North 5.8 mph - N/A   Mostly Cloudy
11:00 PM 44.6 °F 40.7 °F 10.4 °F 25% 29.74 in 6.2 mi NNW 6.9 mph - N/A   Mostly Cloudy
11:30 PM 44.6 °F 43.1 °F 6.8 °F 21% 29.74 in 6.2 mi NNW 3.5 mph - N/A   Mostly Cloudy